Location: Pradons
(44.4746°N, 4.3578°E)
Time: 15:12:12
(UTC+00:00)

Cosmos 1570 Rocket - Pass Details

Date: 09 April 2020
Orbit: 763 x 788 km, 74.1° (Epoch: 27 May)

Event Time Altitude Azimuth Distance (km) Brightness Sun altitude
Rises 20:46:33 0° 341° (NNW) 3,290 8.2 -24.1°
Reaches altitude 10° 20:48:59 10° 345° (NNW) 2,356 7.3 -24.4°
Maximum altitude 20:54:18 64° 67° (ENE) 868 4.1 -25.1°
Enters shadow 20:54:28 64° 77° (ENE) 870 4.0 -25.1°
